Location: Unspecified
(56.5167°N, 0.0000°E)
Time: 00:28:16
(UTC+01:00)

ISS - Visible Passes

Search period start: 18 December 2014 00:00
Search period end: 28 December 2014 00:00
Orbit: 404 x 415 km, 51.6° (Epoch: 17 December)

Date Brightness Start Highest point End Pass type
(mag) Time Alt. Az. Time Alt. Az. Time Alt. Az.
18 Dec -2.1 18:35:47 10° WSW 18:38:50 35° S 18:39:56 27° SE visible
18 Dec -0.1 20:12:10 10° WSW 20:12:42 13° WSW 20:12:42 13° WSW visible
19 Dec -1.9 17:45:16 10° WSW 17:48:16 33° S 17:51:16 10° ESE visible
19 Dec -1.7 19:21:29 10° WSW 19:24:05 29° SSW 19:24:05 29° SSW visible
20 Dec -1.9 18:30:48 10° WSW 18:33:48 33° S 18:35:28 20° SE visible
20 Dec -0.2 20:07:29 10° WSW 20:08:13 14° WSW 20:08:13 14° WSW visible
21 Dec -1.9 17:40:05 10° WSW 17:43:08 35° S 17:46:10 10° ESE visible
21 Dec -1.3 19:16:33 10° WSW 19:19:13 23° SSW 19:19:37 22° S visible
22 Dec -1.5 18:25:40 10° WSW 18:28:32 28° SSW 18:31:04 12° SE visible
22 Dec -0.1 20:03:13 10° SW 20:03:50 11° SW 20:03:50 11° SW visible
23 Dec -1.6 17:34:47 10° WSW 17:37:46 32° S 17:40:45 10° SE visible
23 Dec -0.6 19:11:39 10° WSW 19:13:42 16° SSW 19:15:21 12° S visible
24 Dec -0.8 18:20:27 10° WSW 18:22:58 20° SSW 18:25:29 10° SSE visible
25 Dec -1.0 17:29:22 10° WSW 17:32:09 25° SSW 17:34:55 10° SE visible
26 Dec -0.2 18:15:24 10° WSW 18:17:06 14° SSW 18:18:48 10° S visible
27 Dec -0.3 17:23:54 10° WSW 17:26:13 18° SSW 17:28:32 10° SSE visible
